Lid_Strength_Index
14 15 15 14 10 9 8 6 7 7 5 6 7 4 4 2 1 0 0 -0 -0 -1 -1 -1 -1 -1 -1 -1 -1 -1 -1 -1
14 16 13 11 9 8 8 7 6 6 8 5 3 3 2 1 0 1 0 -0 -0 -1 -1 -1 -1 -1 -1 -1 -1 -1 -1 -1
16 14 12 10 8 9 10 8 7 6 8 7 3 2 1 1 1 1 0 0 -0 -1 -1 -1 -1 -1 -1 -1 -1 -1 -1 -1
17 14 11 10 9 9 10 9 7 7 7 7 3 2 2 1 1 0 1 0 -0 -1 -1 -1 -1 -1 -1 -1 -1 -1 -1 -1
19 15 13 11 10 10 10 8 8 5 8 5 4 2 1 1 1 0 0 0 -0 -0 -0 -1 -1 -1 -1 -1 -1 -1 -1 -1
16 16 16 12 13 12 10 10 5 4 9 9 4 2 1 1 1 1 0 0 0 0 -0 0 -0 -1 -1 -1 -1 -1 -1 -1
17 15 15 12 13 11 8 6 6 5 5 4 3 2 2 3 2 2 1 1 0 0 -0 0 0 -0 -1 -1 -1 -1 -1 -1
13 13 14 12 11 11 10 8 7 6 4 3 3 3 4 4 4 3 2 2 1 0 0 0 -0 0 0 -0 0 0 0 0
12 12 11 11 10 9 11 10 7 7 6 4 4 4 4 4 3 3 2 1 1 0 0 0 0 -0 0 0 0 0 0 1
12 11 12 11 10 10 12 11 5 5 4 4 5 4 4 4 3 3 2 2 1 1 1 1 0 -0 0 0 0 0 0 1
10 11 11 10 10 10 12 10 9 4 4 5 4 4 3 3 2 2 3 2 2 2 2 2 0 1 1 1 1 0 0 1
11 11 11 12 10 10 10 9 7 5 5 5 4 4 4 3 3 3 2 2 2 2 3 2 2 2 1 2 1 1 0 0
11 11 11 11 12 11 8 9 10 6 5 5 4 4 4 3 3 4 4 2 2 2 2 2 2 2 2 1 1 0 2 2
12 11 10 10 14 11 9 10 7 6 5 5 5 4 3 3 3 2 2 3 1 1 2 2 2 2 2 2 3 2 2 2
12 10 11 11 14 10 9 9 7 7 6 6 6 4 4 3 2 3 4 3 2 1 1 1 1 2 2 1 2 2 2 2
13 12 11 14 13 11 10 7 8 7 7 6 6 5 4 3 3 3 3 4 4 3 3 3 1 1 1 0 0 1 1 1
11 11 13 13 13 11 10 10 8 8 7 7 6 5 3 4 3 4 3 4 5 4 3 3 4 2 2 2 2 1 1 1
11 10 13 14 12 11 11 12 10 8 7 7 6 6 5 4 3 3 4 4 4 4 3 3 2 1 1 1 1 1 1 1
13 10 12 14 14 12 11 11 12 10 6 7 6 6 5 4 4 4 4 3 4 2 2 2 1 1 1 1 2 2 2 1
12 13 17 12 18 14 12 12 12 11 9 7 6 5 6 6 5 5 5 4 4 2 2 2 3 2 2 3 3 2 2 3